Location: *
(47.2969°N, 10.2930°E)
Time: 07:51:38
(UTC+00:00)

Daily predictions for brighter satellites

Satellite Brightness Start Highest point End
(mag) Time Altitude Azimuth Time Altitude Azimuth Time Altitude Azimuth
Cosmos 2251 Rocket 4.3 18:23:31 10° SW 18:28:50 61° WNW 18:34:11 10° NNE
STARLINK-1189 3.4 18:27:08 10° NW 18:30:11 48° NNE 18:33:14 10° E
STARLINK-1198 3.4 18:27:37 10° NW 18:30:39 48° NNE 18:33:42 10° E
Cosmos 1140 Rocket 4.2 18:26:22 10° SSE 18:30:56 32° E 18:35:29 10° NE
STARLINK-1188 3.4 18:28:02 10° NW 18:31:05 49° NNE 18:34:08 10° E
STARLINK-1235 3.2 18:28:40 10° WNW 18:31:48 58° NNE 18:34:55 10° ESE
STARLINK-1187 3.3 18:29:06 10° WNW 18:32:13 54° NNE 18:35:19 10° ESE
STARLINK-1199 3.4 18:29:59 10° NW 18:33:04 50° NNE 18:36:08 10° E
Ariane Rocket 3.0 18:28:16 10° SSE 18:33:20 76° ENE 18:38:24 10° NNW
Cosmos 1943 Rocket 4.1 18:28:29 10° NW 18:33:21 32° WSW 18:38:12 10° SSW
STARLINK-1191 3.4 18:30:26 10° NW 18:33:31 51° NNE 18:36:36 10° E
STARLINK-1210 3.4 18:30:53 10° WNW 18:33:58 51° NNE 18:37:03 10° E
STARLINK-1221 3.4 18:31:20 10° WNW 18:34:26 51° NNE 18:37:30 10° E
STARLINK-1219 3.4 18:31:47 10° WNW 18:34:52 51° NNE 18:37:58 10° E
STARLINK-1222 3.4 18:32:14 10° WNW 18:35:18 52° NNE 18:38:24 10° E
STARLINK-1211 3.3 18:32:42 10° WNW 18:35:47 52° NNE 18:38:52 10° E
STARLINK-1214 3.3 18:33:08 10° WNW 18:36:13 52° NNE 18:39:19 10° E
STARLINK-1241 4.5 18:32:23 10° WNW 18:36:21 43° NNE 18:40:19 10° E
STARLINK-1245 3.3 18:33:37 10° WNW 18:36:41 52° NNE 18:39:44 10° E
STARLINK-1238 3.3 18:34:02 10° WNW 18:37:07 53° NNE 18:40:13 10° E
ERBS 3.9 18:35:09 10° NW 18:38:01 25° NNE 18:40:52 10° ENE
STARLINK-1205 3.3 18:34:58 10° WNW 18:38:03 53° NNE 18:41:06 10° ESE
Meteor 1-16 Rocket 4.1 18:32:56 10° S 18:38:21 75° E 18:43:58 10° NNE
STARLINK-1204 3.3 18:35:25 10° WNW 18:38:30 54° NNE 18:41:33 10° ESE
APEX 4.3 18:32:06 10° NNW 18:38:40 78° ENE 18:43:57 10° SSE
Cosmos 614 Rocket 4.0 18:33:34 10° S 18:38:41 60° ESE 18:43:50 10° NNE
CZ-2C R/B 2.9 18:34:08 10° SSE 18:38:55 67° ENE 18:43:38 10° N
STARLINK-1239 4.4 18:37:21 10° WNW 18:41:21 44° NNE 18:45:20 10° E
MONITOR-E 3.8 18:39:44 10° SSE 18:42:19 55° ENE 18:44:55 10° N
STARLINK-29 3.3 18:40:04 10° SW 18:43:08 44° SE 18:46:13 10° ENE
Cosmos 1190 Rocket 4.2 18:39:41 10° S 18:44:45 48° ESE 18:49:50 10° NNE
SJ-6B 3.1 18:41:24 10° SSE 18:45:26 57° ENE 18:49:31 10° N
Aureole 1 Rocket 4.1 18:38:34 10° S 18:45:52 65° ESE 18:51:33 10° NNE
Resurs 1-3 4.5 18:42:04 10° SE 18:45:56 32° ENE 18:49:51 10° N
STARLINK-1240 4.4 18:42:20 10° WNW 18:46:21 45° NNE 18:50:21 10° E
Cosmos 1300 4.1 18:44:16 10° SE 18:47:06 20° E 18:49:58 10° NE
BREEZE-M DEB (TANK) 3.7 18:40:49 10° WNW 18:48:10 88° SSW 18:50:46 13° ESE
Cosmos 2369 Rocket 4.1 18:45:41 10° NW 18:50:37 31° WSW 18:55:30 10° SSW
STARLINK-60 3.1 18:47:25 10° WSW 18:50:42 82° NNW 18:53:59 10° ENE
STARLINK-1216 4.3 18:47:19 10° WNW 18:51:20 47° NNE 18:55:08 11° E
SL-24 R/B 4.4 18:48:20 10° NNE 18:51:58 34° E 18:55:22 10° SSE
CZ-2C R/B 4.2 18:50:26 10° NNE 18:54:53 41° E 18:59:13 10° SSE
STARLINK-1237 4.2 18:52:17 10° WNW 18:56:19 48° NNE 18:59:54 13° E
Cosmos 2058 Rocket 3.2 18:55:02 10° S 18:59:24 54° E 19:03:49 10° NNE
STARLINK-1202 4.2 18:57:17 10° WNW 19:01:20 50° NNE 19:04:42 14° E
Cosmos 1726 Rocket 3.6 18:57:38 10° S 19:02:03 88° E 19:06:33 10° N
SL-08 RB Rocket 3.7 18:57:54 10° SSE 19:02:26 74° ENE 19:07:05 10° N
Cosmos 1461 3.3 18:58:58 10° NW 19:03:30 77° SW 19:08:01 11° SSE
STARLINK-1228 2.8 19:00:40 10° WNW 19:03:37 72° SSW 19:05:31 19° SE
Cosmos 921 Rocket 2.9 19:01:40 10° NNW 19:05:52 67° ENE 19:09:43 12° SSE
DMSP B5D2-2 4.4 19:01:05 10° NNE 19:06:02 42° E 19:10:59 10° SSE
Cosmos 1703 3.8 19:02:13 10° NNW 19:06:10 62° W 19:10:04 10° S
Meteor 2-17 Rocket 4.5 19:00:39 10° N 19:06:50 87° E 19:13:00 10° S
Cosmos 1726 3.8 19:03:21 10° SW 19:06:50 37° WNW 19:10:21 10° N
Cosmos 2341 Rocket 4.3 19:00:39 10° N 19:06:54 53° ENE 19:13:08 10° SSE
SL-4 R/B 2.2 19:03:55 10° W 19:07:15 55° NNW 19:10:40 10° ENE
CZ-4C R/B 4.2 19:04:18 10° NNW 19:09:48 26° NNE 19:16:03 10° ENE
Cosmos 407 Rocket 3.5 19:05:10 10° SSW 19:10:19 89° WNW 19:15:29 10° NNE
Cosmos 1908 3.5 19:06:40 10° SSW 19:10:30 71° W 19:14:24 10° N
Cosmos 1340 Rocket 2.7 19:06:56 10° S 19:10:57 74° E 19:14:59 10° NNE
FREGAT/IRIS 3.8 19:08:44 10° S 19:11:19 38° W 19:13:54 10° NNW
STARLINK-1246 4.0 19:07:14 10° WNW 19:11:19 55° NNE 19:14:15 18° E
RESURS DK-1 4.4 19:09:39 10° N 19:12:19 16° NE 19:14:21 12° ENE
STARLINK-1201 2.9 19:09:25 10° WNW 19:12:42 87° NNE 19:14:33 24° ESE
Cosmos 2228 3.6 19:08:44 10° SSW 19:13:00 61° WNW 19:17:20 10° N
Cosmos 676 Rocket 4.1 19:08:50 10° S 19:13:57 52° ESE 19:19:03 10° NNE
COSMOS 2406 4.5 19:13:01 17° ESE 19:14:17 18° E 19:18:04 10° ENE
STARLINK-1224 4.0 19:12:15 10° WNW 19:16:21 57° NNE 19:19:04 20° E
STARLINK-1203 3.9 19:14:23 10° WNW 19:18:34 62° NNE 19:21:13 21° E
MetOp-A 4.1 19:14:01 10° SSE 19:19:21 79° ENE 19:24:44 10° NNW
Cosmos 2058 4.0 19:16:11 10° NNE 19:19:43 27° ENE 19:21:10 22° ESE
Resurs 01 Rocket 1.9 19:17:44 18° SE 19:20:46 49° ENE 19:25:03 10° N
STARLINK-1225 3.9 19:17:14 10° WNW 19:21:21 60° NNE 19:23:51 22° E
MOS 1 Rocket 3.7 19:17:19 10° NNE 19:22:39 55° E 19:27:59 10° S
STARLINK-52 2.8 19:20:15 10° WSW 19:23:28 84° SSE 19:25:57 16° ENE
CZ-2C R/B 2.7 19:18:56 10° NNE 19:23:58 51° E 19:29:03 10° S
Nadezhda 1 Rocket 4.3 19:18:56 10° SSW 19:25:18 74° W 19:31:40 10° N
BREEZE M DEB (TANK) 3.2 19:23:04 10° SSW 19:26:06 41° SE 19:33:47 10° ENE
STARLINK-1230 3.8 19:22:12 10° WNW 19:26:19 63° NNE 19:28:37 25° E
Cosmos 1812 Rocket 4.3 19:25:20 23° SE 19:26:58 31° E 19:30:47 10° NNE
Cosmos 962 Rocket 4.4 19:21:39 10° N 19:27:50 79° E 19:33:57 10° SSE
SPOT 3 Rocket 3.6 19:23:14 10° SSE 19:28:27 83° WSW 19:33:41 10° NNW
Cosmos 1697 Rocket 4.1 19:25:19 10° N 19:29:52 24° NE 19:32:44 17° E
ARGOS 4.0 19:24:48 10° S 19:30:01 50° W 19:35:15 10° NNW
SL-8 Rocket 4.1 19:24:12 10° N 19:30:26 58° ENE 19:35:13 18° SSE
STARLINK-1243 3.8 19:27:09 10° WNW 19:31:18 67° NNE 19:33:24 27° E
Cosmos 2154 Rocket 4.5 19:25:23 10° NNW 19:31:40 64° W 19:37:52 10° S
FALCON 9 DEB 3.1 19:28:18 10° WSW 19:31:49 86° NNW 19:34:33 16° ENE
Iridium 2 4.1 19:33:27 30° SE 19:34:44 41° E 19:38:22 10° NNE
Cosmos 1954 Rocket 3.9 19:30:18 10° SSW 19:35:32 76° ESE 19:40:45 10° NNE
Cosmos 2181 Rocket 4.1 19:29:29 10° SSE 19:35:33 56° E 19:41:34 10° NNE
USA 186 4.2 19:33:00 10° SSW 19:35:40 23° W 19:38:13 10° NW
STARLINK-1236 3.7 19:32:08 10° WNW 19:36:17 70° NNE 19:38:11 31° ESE
MINOTAUR IV R/B 4.5 19:32:22 10° SSW 19:36:51 84° ESE 19:41:21 10° NNE
Cosmos 2366 rocket 4.1 19:38:30 10° N 19:44:35 58° ENE 19:48:11 25° SSE
Cosmos 1076 Rocket 3.7 19:40:46 10° N 19:44:57 51° ENE 19:46:20 36° SE
STARLINK-1269 3.6 19:42:05 10° WNW 19:46:15 79° NNE 19:47:44 38° ESE
Cosmos 1656 4.1 19:43:32 10° NNW 19:49:02 47° NE 19:51:23 30° ESE
Cosmos 1763 Rocket 3.8 19:44:33 10° NNW 19:49:36 49° ENE 19:51:29 33° ESE
STARLINK-1200 3.5 19:47:04 10° WNW 19:51:14 83° NNE 19:52:31 43° ESE
SPOT 1/Viking Rocket 4.2 19:50:07 30° ESE 19:51:48 38° ENE 19:56:36 10° N
GRACE-FO 1 4.5 19:50:50 36° SSE 19:52:14 78° E 19:55:57 10° N
GRACE-FO 2 4.5 19:51:14 36° S 19:52:37 79° E 19:56:21 10° N
Cosmos 1455 3.9 19:56:32 20° ENE 19:56:32 20° ENE 19:58:22 10° NE
STARLINK-1234 4.2 19:52:48 10° WNW 19:55:32 28° SW 19:55:47 28° SSW
STARLINK-1209 4.4 19:53:18 10° W 19:55:59 26° SW 19:56:15 26° SSW
STARLINK-1192 3.5 19:52:02 10° WNW 19:56:12 88° NNE 19:57:18 49° ESE
STARLINK-1233 3.8 19:53:32 10° WNW 19:56:29 37° SW 19:56:38 37° SSW
STARLINK-1212 3.8 19:54:01 10° WNW 19:56:57 36° SW 19:57:05 36° SSW
STARLINK-1105 3.8 19:54:27 10° WNW 19:57:23 36° SW 19:57:31 36° SSW
STARLINK-1206 3.8 19:54:56 10° WNW 19:57:50 36° SW 19:57:55 35° SW
STARLINK-1247 3.9 19:55:24 10° WNW 19:58:17 35° SW 19:58:22 35° SW
Iridium 4 Rocket 3.1 19:54:18 10° N 19:58:25 53° E 19:59:05 47° ESE
STARLINK-1227 3.9 19:55:47 10° WNW 19:58:43 35° SW 19:58:47 35° SW
STARLINK-1218 3.9 19:56:18 10° WNW 19:59:11 35° SW 19:59:13 35° SW
USA 234 3.6 19:53:30 10° ENE 19:59:35 39° SE 20:05:37 10° SSW
STARLINK-1226 3.9 19:56:45 10° WNW 19:59:38 34° SW 19:59:40 34° SW
Cosmos 1980 Rocket 3.7 19:55:36 10° N 20:00:01 23° NE 20:02:02 19° ENE
STARLINK-1254 3.9 19:57:10 10° WNW 20:00:04 34° SW 20:00:06 34° SW
STARLINK-1215 4.0 19:57:40 10° WNW 20:00:31 34° SW 20:00:31 34° SW
Cosmos 1174 4.1 19:56:48 10° NW 20:00:59 85° NE 20:02:39 42° SE
STARLINK-1231 4.0 19:58:07 10° WNW 20:00:58 33° SW 20:00:58 33° SW
STARLINK-1244 3.5 19:57:07 10° WNW 20:01:17 87° SSW 20:02:10 54° SE
Cosmos 1892 2.7 19:57:59 10° N 20:01:52 58° ENE 20:02:13 55° ESE
STARLINK-1232 4.0 19:59:02 10° WNW 20:01:50 33° SW 20:01:50 33° SW
STARLINK-1217 4.1 19:59:29 10° WNW 20:02:16 33° SW 20:02:16 33° SW
Abrixas rocket 3.5 19:59:57 10° W 20:02:07 27° SW 20:02:07 27° SW
STARLINK-1208 4.1 19:59:54 10° WNW 20:02:43 33° SW 20:02:43 33° SW
STARLINK-1229 4.1 20:00:23 10° WNW 20:03:07 32° SW 20:03:07 32° SW
STARLINK-1271 4.1 20:00:50 10° WNW 20:03:34 32° SW 20:03:34 32° SW
H-2A R/B 4.3 19:59:56 10° SW 20:03:49 21° W 20:07:40 10° NW
STARLINK-1270 4.1 20:01:18 10° WNW 20:04:00 31° SW 20:04:00 31° SW
STARLINK-1154 4.2 20:01:46 10° WNW 20:04:26 31° SW 20:04:26 31° SW
STARLINK-1197 4.2 20:02:40 10° WNW 20:05:18 30° SW 20:05:18 30° SW
ATLAS 5 CENTAUR R/B 3.0 20:01:32 10° WSW 20:05:33 40° NW 20:10:07 10° NNE
STARLINK-1189 4.2 20:03:06 10° WNW 20:05:43 30° SW 20:05:43 30° SW
STARLINK-1138 3.5 20:02:01 10° WNW 20:06:11 82° SSW 20:06:52 60° SE
STARLINK-1198 4.2 20:03:35 10° WNW 20:06:10 30° SW 20:06:10 30° SW
Cosmos 1825 3.6 20:03:07 10° NNE 20:05:39 25° NE 20:05:39 25° NE
ATLAS 2AS CENTAUR R/B 4.3 20:00:32 10° NW 20:06:48 30° WSW 20:12:37 10° S
STARLINK-1188 4.3 20:04:01 10° WNW 20:06:35 30° SW 20:06:35 30° SW
STARLINK-1187 4.5 20:05:09 10° W 20:07:42 26° SW 20:07:42 26° SW
Cosmos-2242 4.0 20:08:41 32° ENE 20:08:41 32° ENE 20:11:51 10° NNE
STARLINK-1199 4.4 20:05:58 10° WNW 20:08:31 29° SW 20:08:31 29° SW
STARLINK-1191 4.4 20:06:25 10° WNW 20:08:56 28° SW 20:08:56 28° SW
STARLINK-1210 4.4 20:06:53 10° WNW 20:09:23 28° SW 20:09:23 28° SW
COSMOS 2455 3.8 20:04:27 10° NW 20:10:06 43° WSW 20:13:57 19° S
STARLINK-1221 4.4 20:07:21 10° WNW 20:09:49 28° SW 20:09:49 28° SW
STARLINK-1219 4.4 20:07:48 10° WNW 20:10:15 28° SW 20:10:15 28° SW
STARLINK-1222 4.5 20:08:15 10° WNW 20:10:40 27° SW 20:10:40 27° SW
STARLINK-1143 3.5 20:06:59 10° WNW 20:11:09 77° SSW 20:11:39 65° SSE
STARLINK-1211 4.5 20:08:43 10° W 20:11:07 27° SW 20:11:07 27° SW
Cosmos 1356 Rocket 4.1 20:13:46 40° ENE 20:13:46 40° ENE 20:17:05 10° NNE
ERBS 2.5 20:11:15 10° NW 20:14:20 65° W 20:14:20 65° W
STARLINK-1241 3.5 20:12:01 10° WNW 20:16:09 71° SSW 20:16:28 67° S
STARLINK-29 4.1 20:16:15 10° W 20:19:20 41° NNW 20:19:44 38° N
IGS 5A 3.3 20:20:27 68° E 20:20:37 69° ENE 20:24:45 10° N
SAR-Lupe-2 3.7 20:17:21 10° N 20:20:56 73° WNW 20:21:15 67° WSW
STARLINK-1239 3.6 20:16:59 10° WNW 20:21:07 66° SSW 20:21:14 66° SSW
ATLAS CENTAUR R/B 2.3 20:18:44 10° NNW 20:22:10 32° NE 20:22:10 32° NE
Cosmos 1300 4.4 20:19:07 10° SW 20:22:34 32° WNW 20:26:02 10° N
Spot 2 Rocket 3.5 20:22:15 43° S 20:23:57 81° WSW 20:29:05 10° NNW
Cosmos 1821 Rocket 4.3 20:19:02 10° N 20:25:15 51° ENE 20:26:40 43° ESE
USA 32 4.0 20:20:25 10° N 20:25:38 63° E 20:26:23 56° ESE
STARLINK-1240 3.7 20:21:58 10° WNW 20:26:01 61° SW 20:26:01 61° SW
Cosmos 1850 Rocket 3.8 20:24:22 25° SSW 20:27:28 86° ESE 20:32:41 10° NNE
Cosmos 841 Rocket 3.6 20:23:36 10° NNW 20:28:50 59° ENE 20:29:32 54° E
Terra 2.6 20:29:53 37° ENE 20:29:53 37° ENE 20:34:10 10° N
STARLINK-1216 3.9 20:26:57 10° WNW 20:30:47 56° SW 20:30:47 56° SW
SPOT 5 3.1 20:31:40 46° NE 20:31:40 46° NE 20:35:30 10° N
Cosmos 2278 4.3 20:26:10 10° NNW 20:31:32 41° NE 20:32:29 38° E
Cosmos 2082 Rocket 3.8 20:34:09 20° ENE 20:34:09 20° ENE 20:36:22 10° NE
Meteor 2-10 Rocket 3.5 20:33:52 61° ESE 20:34:17 64° E 20:39:41 10° NNE
SL-08 R/B 4.4 20:28:25 10° N 20:34:36 89° W 20:36:45 44° S
STARLINK-1237 4.1 20:31:56 10° WNW 20:35:33 50° WSW 20:35:33 50° WSW
Cosmos 1833 Rocket 3.1 20:39:02 44° ENE 20:39:02 44° ENE 20:43:28 10° NE
CARTOSAT-1 3.8 20:39:31 58° NE 20:39:31 58° NE 20:43:22 10° N
STARLINK-1202 4.4 20:36:57 10° WNW 20:40:21 45° WSW 20:40:21 45° WSW
Cosmos 468 Rocket 4.5 20:36:15 10° NNW 20:41:16 53° WSW 20:42:31 43° SSW
SL-4 R/B 3.1 20:43:57 10° WNW 20:46:33 35° NNW 20:46:33 35° NNW
ERS-1 Rocket 2.8 20:47:00 78° SE 20:47:19 85° ENE 20:52:23 10° NNW
Cosmos 1408 3.5 20:44:10 10° NNW 20:46:55 47° NNW 20:46:55 47° NNW
RESURS DK-1 2.8 20:46:43 10° NNW 20:50:15 60° NW 20:50:15 60° NW
Cosmos 1766 Rocket 3.8 20:48:58 10° N 20:52:50 65° N 20:52:50 65° N
Cosmos 1570 Rocket 4.0 20:48:41 10° NNW 20:54:03 74° WSW 20:54:32 68° SSW
BREEZE M DEB (TANK) 3.5 20:48:34 10° W 20:53:26 52° WNW 20:53:26 52° WNW
Okean 3 Rocket 3.7 20:50:33 10° NNW 20:54:34 71° NW 20:54:34 71° NW
Resurs 01 Rocket 3.9 20:55:17 14° SW 20:57:32 19° W 21:00:41 10° NW
COSMOS 2406 3.3 20:54:53 29° SW 20:57:54 76° WNW 21:03:40 10° NNE
CZ-4C R/B 3.1 20:52:40 10° NW 20:59:40 64° NE 21:01:49 48° ESE
Cosmos 2151 3.8 21:04:05 10° NNW 21:07:34 46° WNW 21:07:34 46° WNW
Cosmos 1697 Rocket 2.7 21:08:45 10° NNW 21:14:26 73° WSW 21:14:29 73° WSW
Cosmos 2369 3.7 21:08:53 10° NNW 21:14:33 74° WSW 21:14:34 74° WSW
Cosmos 1455 4.4 21:31:25 24° NW 21:31:25 24° NW 21:34:01 10° NNW
Cosmos 540 Rocket 4.3 21:29:59 10° NNW 21:34:20 43° W 21:34:20 43° W
SL-16 R/B 3.3 21:31:11 10° NNW 21:36:11 35° NE 21:36:11 35° NE
Cosmos 2360 Rocket 4.0 21:32:38 10° N 21:36:40 20° NE 21:37:32 19° NE
USA 234 3.3 21:36:22 10° NE 21:42:55 76° NNW 21:49:26 10° WSW
Cosmos 2322 Rocket 3.3 21:38:13 10° NNW 21:43:04 33° NE 21:43:04 33° NE
Cosmos 2221 4.5 21:46:37 25° NNE 21:46:37 25° NNE 21:48:31 10° NNE
Cosmos 1980 Rocket 2.5 21:39:01 10° NNW 21:43:48 63° NW 21:43:48 63° NW
ASTEX 1 4.3 21:50:00 48° NW 21:50:00 48° NW 21:53:44 10° NNW
Meteor 2-3 Rocket 4.3 21:50:18 10° NNW 21:55:21 51° WNW 21:55:21 51° WNW
ATLAS CENTAUR R/B 4.1 21:57:48 10° WNW 21:58:21 13° WNW 21:58:21 13° WNW
Cosmos 1727 Rocket 4.5 22:05:51 53° NE 22:05:51 53° NE 22:10:51 10° NNE
Mayak 0.9 22:03:10 10° N 22:04:58 24° N 22:04:58 24° N
Terra 3.6 22:08:45 26° WNW 22:08:45 26° WNW 22:11:45 10° NW
Cosmos 2082 Rocket 2.9 22:15:56 50° NW 22:15:56 50° NW 22:20:58 10° NNE
Cosmos 2100 Rocket 4.5 22:15:35 10° N 22:20:40 54° NNE 22:20:40 54° NNE
Cosmos 1833 Rocket 4.2 22:20:38 28° W 22:22:11 32° NW 22:27:14 10° NNE
Cosmos 2173 Rocket 4.5 22:21:28 10° N 22:26:16 52° NNE 22:26:16 52° NNE
Cosmos 2219 Rocket 4.2 22:29:46 10° N 22:33:48 20° NE 22:34:41 19° NE
Cosmos 2344 4.4 22:26:54 10° NW 22:36:34 68° WSW 22:38:34 60° SSW
CZ-4C R/B 3.8 22:41:27 10° NW 22:46:59 37° W 22:46:59 37° W
COSMOS 2428 4.3 22:58:38 10° N 23:03:30 28° NE 23:03:37 28° NE
SL-16 R/B 3.8 23:15:15 10° NW 23:18:02 27° NW 23:18:02 27° NW
Cosmos 2360 Rocket 3.3 23:15:50 10° NNW 23:19:17 39° NNW 23:19:17 39° NNW
USA 234 4.3 23:19:24 10° NE 23:25:27 42° NNW 23:31:30 10° W
Cosmos 2322 Rocket 3.8 23:22:10 10° NW 23:24:52 27° NW 23:24:52 27° NW
MOS 1-B Rocket 4.5 23:34:47 10° N 23:40:21 65° NNW 23:40:21 65° NNW
Cosmos 2333 Rocket 3.2 23:38:18 10° NNW 23:42:25 43° N 23:42:25 43° N
Cosmos 2237 Rocket 4.1 23:40:04 10° N 23:44:40 24° NE 23:46:25 21° ENE
Cosmos 2233 Rocket 4.5 23:42:59 10° N 23:47:50 56° N 23:47:50 56° N
SL-16 R/B 3.8 23:48:42 31° E 23:49:43 33° ENE 23:55:09 10° N
